ORBITAL FACTORY 2 (OF-2) (45113 NORAD) Tracking and Keplerian Element Data

This shows tracking and keplerian element data for the satellite.

Feedback or suggestion? Click here.




ElementValue
Catalog45113
NameORBITAL FACTORY 2 (OF-2)
Epoch Orbit957
Epoch Day94.13611466
Epoch Year2020
RAAN7.3093
Inclination51.6447
Eccentricity0.0013491
Argument of Perigee143.7994
Mean Anonmoly216.3903
Mean Motion15.33059563
Decay Rate1.755E-05
L11 45113U 19071C 20094.13611466 .00001755 00000-0 65685-4 0 9997
L22 45113 51.6447 7.3093 0013491 143.7994 216.3903 15.33059563 9575

Live tracking and technical data element details for ORBITAL FACTORY 2 (OF-2) (NORAD 45113). ORBITAL FACTORY 2 (OF-2) can be tracked NOW for your location showing map with azimuth and elevation plus other details from your city location.

Track the satellite on the map from your city or location and see movement details for azimuth, elevation, latitude, longitude, range, height, and movement on the map or in text.







IsCatalogInMostPopularTable: catalog: 45113, numindb: 16
Update: records affected: 1



GetName: 45113 ORBITAL FACTORY 2 (OF-2)

Hit Count: updated at: Fri, 03 Apr 2020 23:28:25 GMT